GFSCGP_500_rhum_090.txt.gz
RH
56 47 38 19 16 13 12 28 57 50 44 34 49 48 48 20 19 13 13 15 20 22 18 16 24 45 36 18 16 38 52 63 74 65 46 50 38 87 96 95 96 97 97 93
38 25 20 18 29 44 59 58 54 58 54 32 46 61 64 53 31 15 12 11 13 16 15 17 72 46 46 18 82 86 59 71 71 79 61 74 39 88 97 97 96 96 96 96
27 23 26 31 33 42 57 71 74 51 21 26 44 70 55 54 49 67 34 28 31 64 58 24 72 65 68 71 74 72 89 65 62 77 93 88 57 86 96 97 96 96 98 95
26 33 38 44 45 50 53 61 61 55 36 36 34 54 61 84 92 88 91 100 99 72 37 76 47 80 91 83 98 82 78 84 98 91 94 95 91 89 98 96 97 96 96 96
32 37 41 46 44 53 62 73 78 59 55 71 91 48 47 69 83 90 100 100 85 63 54 60 99 100 100 89 66 66 75 96 96 97 96 97 100 87 95 96 96 97 96 96
40 41 38 47 69 80 88 98 100 100 99 85 96 79 40 47 51 54 56 44 59 68 62 87 100 96 87 86 42 49 90 98 95 97 98 97 98 91 95 97 96 96 97 97
49 36 37 54 76 94 94 94 100 100 100 100 100 99 30 26 30 36 53 79 72 80 97 100 100 94 66 63 54 78 95 96 97 97 97 96 98 97 95 96 97 97 97 97
56 36 46 77 89 91 99 100 99 100 100 100 99 99 86 88 91 98 100 93 95 99 96 96 99 99 98 98 92 76 96 95 98 97 97 97 96 96 97 96 98 96 97 97
53 63 82 94 96 99 100 98 98 98 100 100 95 80 80 94 99 92 97 99 99 98 97 99 100 99 98 98 98 97 98 98 97 97 97 96 98 100 98 96 98 97 97 94
65 84 92 96 98 100 100 100 96 97 100 98 99 97 98 93 92 88 96 97 98 98 99 98 98 97 98 97 98 97 97 96 96 97 96 96 96 100 97 93 97 97 98 97
91 90 94 99 98 99 100 99 98 100 100 98 98 93 92 98 98 98 99 98 98 98 97 98 98 98 98 92 92 88 86 89 92 92 95 96 96 95 96 95 98 96 96 97
88 83 92 100 98 94 95 86 90 100 98 91 93 92 97 80 89 93 98 97 98 97 96 97 98 96 80 56 61 79 85 82 79 80 66 61 67 62 61 76 78 84 90 90
84 80 85 91 92 74 80 77 82 82 77 78 75 87 98 91 83 87 96 100 98 84 78 71 64 50 64 62 58 61 53 55 61 68 63 52 45 40 34 32 34 36 53 57
79 75 83 80 77 81 70 58 52 43 53 60 54 60 67 67 67 82 90 97 100 100 99 99 86 56 42 34 31 29 30 31 33 40 44 42 38 36 32 31 33 40 51 68
53 50 50 54 56 55 51 44 40 41 40 37 47 45 48 42 46 56 64 65 62 57 54 48 42 38 35 33 29 24 23 21 19 17 13 12 12 13 15 17 18 20 22 26
35 40 42 34 35 34 34 35 33 32 31 28 30 30 28 31 33 34 34 35 32 28 27 22 18 10 6 6 7 8 8 9 10 10 9 9 7 8 9 9 7 5 4 5
15 13 13 13 14 13 13 13 12 13 12 11 8 6 6 6 6 6 6 7 10 10 11 12 14 15 15 14 14 15 14 12 12 11 12 11 10 12 12 13 14 17 16 12
15 14 12 11 11 8 7 8 8 7 6 6 6 6 8 10 11 15 19 20 21 21 23 24 22 21 20 15 14 13 13 12 12 14 12 13 11 11 14 18 22 23 24 22
8 9 8 7 7 7 7 7 9 10 11 12 15 19 22 23 21 19 21 21 21 18 16 14 13 12 10 10 11 10 9 8 8 8 8 8 8 11 16 20 31 32 27 21
6 6 7 8 8 8 12 15 16 16 19 22 23 22 19 16 14 14 13 12 11 10 10 10 10 10 10 9 8 8 8 8 8 8 9 10 12 14 16 25 31 42 45 40
12 13 14 18 17 18 22 22 20 21 21 20 16 13 13 13 13 12 12 12 12 11 10 10 12 14 14 14 14 14 13 10 11 12 11 12 12 13 20 24 40 58 61 62
24 24 26 25 24 23 24 22 19 18 16 14 14 15 15 15 14 13 13 13 13 13 13 13 14 18 19 19 18 17 16 14 14 14 14 13 18 26 31 34 34 32 31 34
25 25 24 22 21 18 17 16 15 14 14 14 15 16 16 16 14 14 14 14 14 14 14 13 18 23 23 21 19 18 15 14 12 10 9 12 20 17 10 8 9 9 9 9
20 18 16 15 15 16 17 17 16 16 18 17 17 16 16 17 18 18 18 17 16 15 15 17 23 25 25 24 21 18 16 12 9 7 8 6 7 9 11 14 16 18 22 24
23 18 15 16 16 14 15 15 16 16 17 19 20 18 17 18 19 22 23 22 19 17 17 20 26 28 28 25 21 17 11 7 6 5 6 8 11 15 19 20 17 14 13 12
29 26 24 21 20 20 20 22 23 23 21 19 20 22 21 20 21 23 26 27 27 23 21 24 30 31 29 24 18 11 6 4 4 6 8 14 17 24 21 23 27 32 30 26

GFSCGP_500_rhum_093.txt.gz
RH
71 64 55 46 40 30 17 13 12 15 15 24 54 21 57 28 15 28 9 9 11 14 18 20 21 38 47 45 41 34 31 26 18 10 9 11 12 11 12 12 10 15 57 88
58 49 38 25 17 14 16 26 29 51 46 28 25 28 39 54 60 44 32 20 13 12 16 18 20 28 33 29 38 63 49 22 17 10 10 15 25 25 47 29 22 42 97 98
39 30 21 18 20 20 27 44 53 47 39 36 42 40 62 60 78 52 40 25 18 14 15 25 20 23 21 32 48 61 38 27 22 28 49 31 42 37 40 69 75 94 93 91
28 23 20 28 26 28 38 56 62 60 43 51 86 51 80 74 81 98 100 100 80 68 29 30 32 32 23 47 63 40 33 27 58 77 46 33 36 64 76 66 96 98 84 97
34 28 29 26 26 34 64 60 74 94 96 80 94 75 84 87 100 100 100 100 100 100 91 77 53 26 35 58 45 51 56 62 67 53 67 72 68 88 100 76 97 97 96 96
36 27 26 29 47 59 81 80 79 95 100 100 96 56 49 56 80 92 100 95 76 64 49 83 75 82 74 80 84 87 80 81 66 74 91 97 90 94 89 97 97 98 96 96
27 23 40 57 68 77 85 81 74 79 100 99 97 93 28 35 47 63 46 60 62 81 96 99 98 84 70 47 52 66 73 79 91 82 97 97 95 96 97 97 97 97 96 96
36 40 45 50 63 79 90 94 81 87 100 100 100 98 76 67 64 77 93 87 80 86 100 100 100 100 69 93 99 100 61 67 87 96 96 96 98 96 97 97 97 96 97 97
43 58 66 72 85 95 97 100 92 98 98 99 93 96 95 98 98 98 97 97 99 96 97 98 98 99 99 98 98 98 93 85 94 94 93 97 97 94 92 96 96 97 97 97
63 84 96 87 94 98 100 98 98 99 100 100 99 97 94 97 97 99 98 99 99 98 98 98 98 98 98 98 97 97 97 98 98 98 97 96 97 95 92 96 97 96 96 97
94 97 96 100 96 99 100 100 97 100 99 98 98 100 100 100 96 97 98 98 98 98 98 98 98 98 98 98 98 91 87 94 95 96 96 96 96 95 96 97 97 98 97 96
97 98 99 99 92 91 94 97 97 94 100 99 99 100 98 100 94 93 97 100 99 98 98 98 98 98 94 76 82 71 69 79 70 75 71 60 55 63 84 94 94 95 96 97
81 83 90 83 70 63 68 66 74 84 86 90 98 95 90 87 93 97 99 89 78 71 78 71 71 71 66 66 46 46 42 41 42 50 58 58 55 50 46 42 47 50 62 74
72 71 63 58 43 46 36 42 36 40 45 49 48 62 82 83 82 89 93 90 87 87 80 82 76 61 45 36 28 24 22 20 18 16 16 14 14 16 20 24 24 25 25 26
48 46 43 38 36 31 20 16 18 25 32 27 28 31 27 34 37 46 45 44 51 56 52 40 29 24 15 12 9 7 6 6 7 8 8 8 8 8 8 7 8 8 6 6
28 25 26 31 30 30 26 24 20 22 18 14 16 16 12 8 10 14 16 12 10 9 9 13 9 10 14 16 16 14 15 14 12 12 10 10 10 8 8 8 9 10 13 15
18 13 10 9 9 9 10 10 9 9 9 7 6 6 6 8 10 11 12 14 16 19 20 19 17 15 14 13 12 11 11 10 8 7 7 6 6 5 5 5 6 6 7 8
9 9 9 7 7 6 6 6 6 7 8 9 9 11 16 20 23 23 23 22 23 20 17 15 13 12 12 11 10 8 9 8 8 9 9 8 8 8 8 7 7 7 8 10
7 6 7 7 8 8 8 10 11 14 16 20 23 24 24 23 21 19 18 18 16 15 13 12 11 11 11 12 12 13 12 11 11 10 9 8 7 7 7 8 7 8 8 8
8 9 11 10 14 16 20 20 19 18 21 23 22 20 18 16 15 15 14 14 13 12 11 10 9 10 10 11 12 15 15 15 15 13 12 10 9 10 10 9 9 8 9 8
21 21 22 22 19 18 21 19 18 17 17 14 13 14 14 14 14 14 13 13 13 13 12 12 11 10 10 12 17 19 20 18 16 14 12 11 10 11 10 10 8 8 7 7
21 21 20 20 20 21 16 16 14 14 13 14 14 14 14 15 15 16 18 17 16 13 12 13 14 14 15 16 19 21 23 23 22 19 15 14 15 13 11 8 6 4 4 4
20 16 15 16 18 17 18 18 18 18 18 18 18 18 16 16 16 16 18 20 22 24 24 23 21 20 19 19 20 22 25 27 26 22 19 17 14 10 7 5 4 4 5 10
23 19 16 16 16 14 14 16 16 16 16 17 17 18 20 21 20 19 19 19 21 24 28 30 32 34 35 30 26 26 29 32 28 23 18 14 10 6 4 4 5 10 15 14
28 25 23 21 20 19 20 20 21 22 23 25 26 25 24 22 21 23 24 23 24 24 26 29 33 38 43 47 43 37 37 36 28 22 14 9 6 4 4 6 13 20 22 22
37 34 32 32 31 30 29 28 29 30 32 33 33 34 33 32 28 24 25 28 29 28 28 30 33 40 58 70 72 56 45 36 26 16 9 6 4 5 7 12 22 25 25 28

GFSCGP_500_rhum_099.txt.gz
RH
93 89 87 83 75 62 51 42 35 30 24 19 15 13 11 10 10 10 9 9 8 7 8 8 8 6 7 13 20 20 19 15 11 9 12 46 60 51 38 33 31 29 29 27
94 88 81 68 52 41 36 33 24 20 15 11 12 18 19 30 34 28 29 21 16 18 18 17 15 9 7 9 11 12 12 11 10 10 14 24 57 58 49 44 41 35 30 24
80 69 54 46 40 36 29 20 14 11 14 29 32 37 43 43 51 40 51 56 59 49 34 31 21 14 9 8 8 8 7 9 16 11 18 26 46 58 56 50 44 39 32 21
59 47 44 41 30 19 14 12 17 28 29 30 40 35 60 56 49 39 72 80 98 100 68 72 53 24 15 11 13 34 26 26 17 23 25 27 44 52 52 50 47 43 37 30
53 46 37 24 16 14 18 32 37 32 35 36 50 46 70 65 38 49 79 98 99 100 100 100 100 100 61 50 27 24 17 28 27 25 26 39 38 36 35 33 35 35 33 26
39 34 22 19 20 31 38 40 55 52 44 37 53 58 70 59 41 72 91 98 96 100 100 100 100 100 99 57 28 23 21 24 28 34 32 31 40 30 26 29 28 26 22 27
27 22 20 24 39 40 56 62 50 50 52 55 63 83 93 90 66 44 66 87 88 94 98 94 77 62 50 38 37 30 31 31 30 58 84 83 55 51 33 38 46 54 51 73
24 24 40 45 51 64 63 57 59 61 64 65 82 92 98 99 98 93 97 95 90 93 98 98 100 100 99 93 80 83 83 81 75 77 85 96 97 98 89 79 89 97 81 83
40 44 52 62 58 58 59 55 60 70 74 84 89 98 100 98 100 100 97 97 98 98 98 100 100 100 100 98 99 99 98 96 98 98 71 75 76 85 84 88 86 85 93 87
77 75 68 60 59 61 65 64 70 68 72 82 93 98 99 98 98 100 100 99 98 99 98 98 98 98 100 100 99 99 99 99 100 100 98 99 100 97 95 97 98 94 95 91
81 70 72 77 83 82 89 90 90 84 92 92 90 98 98 99 99 100 100 98 98 98 98 98 98 98 97 99 98 98 98 99 99 98 99 98 98 98 97 98 98 97 96 96
75 72 64 59 63 68 62 62 72 89 96 97 95 98 95 99 98 100 100 100 100 100 96 98 99 99 99 99 99 98 98 98 97 95 97 97 97 98 96 95 94 94 95 96
69 58 50 41 34 29 28 32 38 39 45 54 60 77 82 86 92 96 97 98 99 98 99 100 99 97 65 53 47 39 33 26 21 21 24 26 30 28 26 23 22 24 26 26
36 25 19 19 14 13 13 12 15 16 20 25 22 22 34 63 68 65 66 61 62 70 62 51 42 36 28 20 15 12 9 7 6 6 6 6 7 8 8 8 8 8 8 7
17 13 13 11 10 11 10 10 9 9 10 10 14 13 11 13 18 25 27 31 30 22 17 14 12 9 7 7 8 9 11 13 13 14 13 11 10 11 12 14 14 14 13 12
12 10 9 9 8 7 6 6 6 6 6 7 8 6 6 7 7 8 8 8 8 9 10 9 10 12 14 16 15 14 15 15 16 17 18 18 18 18 19 19 18 16 14 13
9 8 8 6 5 5 5 5 5 5 5 5 6 7 10 12 10 10 12 13 14 15 15 16 15 14 13 13 14 14 14 13 13 14 14 16 17 18 18 18 18 18 17 16
5 5 5 6 6 7 7 8 10 10 10 12 13 14 14 13 13 14 13 13 14 14 14 14 14 14 14 13 12 12 12 12 12 12 13 15 16 17 17 17 17 16 17 18
7 8 9 10 12 13 14 14 14 14 13 12 12 12 13 13 14 14 13 14 13 14 14 14 14 14 14 14 15 16 17 18 19 19 20 21 22 25 26 28 27 26 26 26
18 18 16 16 15 16 15 15 15 15 15 15 14 14 14 15 15 17 17 17 18 19 19 20 20 21 22 22 24 25 26 28 29 30 30 30 30 31 33 36 40 45 47 48
18 18 18 18 19 19 19 18 17 19 18 15 14 14 16 17 18 19 19 20 20 21 21 21 22 22 23 24 25 25 26 26 27 27 27 28 30 32 36 43 53 58 63 61
19 18 17 17 16 17 18 17 18 18 18 18 18 18 18 19 20 21 23 26 28 30 32 34 37 40 44 46 47 46 44 42 40 39 38 39 43 51 66 75 77 74 67 62
31 29 30 30 27 26 26 25 24 23 21 22 22 21 21 24 28 36 44 48 54 61 72 82 90 88 86 84 83 83 87 89 90 92 92 96 98 94 89 81 77 76 73 67
27 32 36 38 35 37 38 40 40 43 44 45 46 47 49 52 55 64 72 80 87 94 97 96 92 81 71 62 57 55 61 71 78 85 90 94 97 96 96 90 85 79 75 71
20 20 18 20 21 23 24 24 24 25 30 37 44 50 55 60 84 94 96 95 94 83 78 68 58 57 61 68 68 68 73 79 81 85 89 94 98 99 98 100 99 93 85 65
8 7 7 10 14 17 19 21 24 28 30 28 29 32 36 43 49 56 61 60 52 44 44 49 66 79 78 78 76 74 69 64 72 84 91 97 98 99 96 90 88 49 27 7

GFSCGP_500_rhum_105.txt.gz
RH
98 96 91 84 80 66 56 50 45 42 40 42 46 46 39 33 26 20 16 11 9 8 8 8 8 8 9 9 10 10 11 12 13 16 20 22 22 19 17 14 9 8 12 9
96 99 99 95 94 93 91 83 68 58 54 50 39 28 22 15 10 8 8 9 10 11 11 10 12 11 9 9 9 8 7 8 9 7 9 15 19 19 20 16 13 13 14 14
93 99 97 90 94 92 85 78 67 53 39 26 18 12 9 10 11 14 20 28 36 42 44 39 30 30 32 24 16 15 10 9 9 10 10 15 12 27 32 20 15 15 19 19
95 92 89 86 80 75 62 55 39 27 17 11 9 8 13 17 24 29 37 52 59 70 55 40 38 49 70 68 75 64 28 21 23 35 36 61 24 24 43 26 17 20 22 20
100 99 91 82 70 57 46 30 19 11 10 16 22 23 32 32 36 41 44 59 70 73 56 54 56 60 78 93 98 72 40 40 51 72 85 78 91 100 91 66 18 18 18 18
94 88 77 66 50 36 24 14 10 18 28 28 33 40 37 38 46 47 44 50 67 67 60 65 76 79 82 92 98 80 66 81 99 100 100 97 98 100 100 63 18 13 12 12
73 59 48 38 27 18 11 16 30 33 37 47 48 41 41 61 58 60 52 54 67 60 75 91 99 100 100 97 70 79 88 97 97 100 100 100 100 99 76 17 14 14 21 24
44 32 30 21 16 17 25 46 43 45 47 45 44 52 57 60 61 64 63 66 68 78 87 84 90 94 95 100 100 79 64 72 88 91 91 94 100 88 52 46 49 48 56 49
23 20 15 20 24 46 52 46 48 49 45 50 58 60 66 70 69 69 76 77 72 81 86 90 82 92 83 96 99 100 99 98 98 90 49 49 60 57 92 99 99 94 95 99
21 27 37 49 53 52 54 56 55 50 52 57 62 70 71 79 84 83 85 86 92 95 94 96 92 85 81 87 96 90 90 96 98 98 99 95 97 98 95 88 85 68 92 98
49 56 60 70 68 63 58 57 59 63 56 60 57 59 62 69 71 74 72 73 71 69 70 75 71 81 92 94 94 95 92 100 96 90 93 100 97 89 92 98 98 97 96 97
78 75 70 52 36 26 21 20 23 26 29 35 40 39 36 34 43 53 65 61 60 56 58 52 40 38 68 96 99 99 98 71 85 98 98 99 99 99 98 98 97 98 97 94
45 26 16 12 10 9 8 7 7 12 14 15 16 15 13 11 13 17 22 23 26 30 35 33 30 27 24 19 15 15 14 11 9 11 12 12 11 10 11 11 11 12 12 12
12 10 9 9 9 8 7 6 5 6 6 6 7 8 6 6 7 8 8 9 9 9 10 10 9 9 9 9 9 10 11 13 15 16 16 16 16 15 14 13 13 13 14 15
10 9 10 9 6 5 5 5 5 5 6 6 5 5 7 9 9 9 10 11 12 12 13 14 15 14 14 14 14 13 13 13 13 13 13 13 14 14 15 15 15 16 17 18
11 9 6 5 5 5 6 6 6 6 6 7 9 11 13 14 15 15 15 15 15 14 14 14 14 14 14 14 14 15 15 16 16 17 18 19 20 21 22 24 25 26 27 27
6 6 7 8 9 9 9 11 11 10 11 12 12 13 13 13 14 14 14 15 15 15 16 16 17 17 18 19 20 21 22 22 22 22 23 23 24 24 25 26 26 26 27 27
9 10 10 10 11 11 11 11 11 11 12 13 13 14 13 13 13 14 14 15 16 17 17 18 19 20 20 21 22 23 24 28 38 52 63 70 70 67 64 62 60 59 60 60
15 15 15 15 16 16 16 17 17 17 17 19 19 19 18 17 17 17 17 18 20 20 21 23 27 33 38 44 57 73 83 88 86 72 56 56 63 67 68 69 68 66 64 62
19 18 19 18 22 21 22 23 24 26 27 32 33 34 35 35 32 30 27 25 26 30 38 49 54 64 79 91 88 74 62 51 50 57 66 65 52 37 31 29 29 30 29 30
32 34 32 33 29 28 27 30 24 27 26 26 23 25 28 31 38 46 51 55 59 73 84 95 91 72 62 58 45 46 57 56 37 22 20 20 20 21 20 20 15 10 10 12
31 29 30 26 13 12 9 11 15 16 16 18 18 19 19 22 26 30 32 38 44 49 50 49 49 47 50 57 56 38 29 24 33 44 46 47 47 47 47 44 28 15 16 21
19 17 12 10 8 10 12 14 18 17 16 14 15 16 16 21 19 18 28 31 33 36 41 46 54 48 32 26 23 26 42 48 49 42 38 35 34 34 34 28 22 26 38 56
13 12 10 9 9 12 12 10 13 12 10 12 12 10 13 17 16 15 19 25 30 34 37 36 24 26 33 40 43 45 45 43 38 32 29 27 29 30 27 26 36 62 75 80
14 13 13 13 14 13 13 10 10 10 8 13 14 10 9 12 15 16 18 22 23 24 23 24 32 44 46 45 46 47 42 38 35 32 31 31 30 27 35 66 85 86 84 71
15 14 13 13 13 12 10 9 10 10 8 12 15 16 11 18 21 18 19 23 24 26 33 38 44 48 45 44 49 48 42 39 40 35 33 27 26 35 68 82 92 78 33 9

GFSCGP_500_rhum_108.txt.gz
RH
81 56 50 46 48 48 47 48 48 46 45 45 44 43 43 43 43 39 35 31 24 18 13 12 12 11 10 9 8 8 9 10 12 13 14 15 15 17 21 32 39 54 62 69
97 95 83 69 67 66 60 57 56 61 74 77 69 64 54 41 32 25 18 14 9 8 14 11 8 9 10 9 10 14 13 12 9 7 8 9 11 11 12 22 38 44 55 56
92 95 94 94 92 88 80 72 69 71 67 58 52 38 28 19 14 10 8 8 18 30 25 13 12 15 23 28 27 27 22 16 14 9 8 8 9 12 25 33 32 41 56 56
88 85 88 85 81 77 67 77 66 59 52 39 23 17 11 8 8 10 16 22 31 40 32 14 21 26 30 30 36 48 59 50 21 18 20 32 65 90 89 77 75 84 78 67
92 84 88 87 76 70 74 68 58 42 23 13 7 8 11 17 24 26 31 35 38 44 33 25 36 45 56 64 65 40 36 32 37 37 79 67 83 86 100 100 100 100 100 92
82 80 82 80 76 74 67 45 27 16 10 8 13 22 30 32 37 52 49 49 46 51 49 57 58 66 78 78 80 42 38 64 82 90 100 97 98 100 100 90 90 92 68 59
97 94 92 82 63 40 28 21 12 12 22 23 33 36 44 50 54 61 59 57 57 56 51 51 65 72 80 93 72 82 50 59 72 87 91 99 96 100 93 100 100 87 73 70
68 56 45 36 26 20 14 12 24 32 33 37 45 50 47 59 58 61 59 57 42 46 57 60 63 77 86 93 66 68 86 96 94 96 85 84 86 93 95 80 68 78 68 52
34 30 26 20 15 13 24 43 42 41 39 42 50 54 60 61 68 68 64 58 57 58 65 69 71 71 82 88 77 64 80 96 98 100 96 53 56 62 68 74 79 100 100 94
20 16 15 25 36 44 47 53 50 44 45 52 51 49 50 58 62 59 59 59 57 55 54 55 63 70 73 70 70 79 83 87 89 98 99 98 100 98 99 97 96 98 98 98
20 30 44 54 54 58 64 58 55 54 52 44 31 32 27 24 27 41 52 54 52 48 46 45 38 34 28 24 31 47 76 76 36 92 92 96 97 96 96 95 94 97 98 97
48 55 60 53 43 24 22 20 21 24 23 21 18 15 13 12 10 11 13 12 11 13 17 22 16 11 11 9 9 10 11 11 11 11 11 13 16 47 90 47 21 21 15 17
48 23 14 10 10 9 8 8 6 8 13 11 10 9 8 6 6 7 7 8 8 9 10 9 9 10 12 13 14 15 16 17 18 17 17 17 17 17 18 19 19 19 19 20
10 9 9 9 8 7 6 5 5 5 5 5 5 5 7 9 10 10 12 13 12 12 12 14 13 13 13 13 13 12 12 12 12 12 13 14 14 14 15 16 16 17 17 18
10 9 6 5 5 5 5 5 5 5 5 5 7 10 10 11 12 12 12 12 12 12 12 12 12 13 13 14 15 16 18 19 20 21 22 22 22 23 23 24 25 25 26 26
6 6 6 7 8 8 9 10 9 9 10 10 11 11 12 12 12 13 13 14 14 15 16 17 17 18 18 19 20 22 23 24 25 30 39 52 65 74 77 76 74 70 68 67
10 11 12 11 11 11 10 9 10 11 12 12 13 14 15 15 15 16 16 16 17 18 18 19 20 21 24 29 33 39 49 61 68 79 84 78 62 53 51 53 57 58 57 56
14 13 14 14 12 13 12 13 14 16 17 16 17 19 19 19 19 20 21 20 19 20 20 21 29 38 48 53 63 74 86 92 70 49 48 47 36 27 26 26 27 29 31 34
16 16 16 17 19 20 21 24 27 29 28 29 33 34 32 39 35 34 39 43 50 52 51 65 81 80 77 73 57 52 46 43 37 24 21 25 35 36 30 26 23 22 23 27
29 29 28 28 27 23 16 12 12 15 27 27 18 18 18 19 20 20 23 24 28 32 32 34 34 35 38 40 36 30 24 24 28 39 40 36 26 24 21 20 18 15 15 21
29 29 24 19 11 13 12 9 10 13 15 18 18 18 17 16 18 19 22 21 20 20 21 27 33 37 30 26 28 31 35 38 37 35 34 33 31 29 27 26 22 21 22 20
22 20 20 18 12 8 9 12 12 11 12 14 12 14 12 10 15 16 16 15 17 21 22 27 29 27 26 31 35 36 36 34 37 38 39 37 35 30 29 27 28 24 15 15
17 17 16 14 12 10 10 12 13 11 9 11 8 12 14 13 10 13 16 16 18 21 23 24 25 27 31 38 42 43 40 40 39 38 37 36 34 32 31 27 22 17 20 44
15 15 14 13 14 14 13 14 12 9 9 9 10 9 15 15 14 13 21 19 20 24 26 27 31 35 39 41 47 51 55 46 38 38 34 33 28 29 30 24 18 25 53 68
8 9 10 9 11 10 10 9 9 8 8 9 10 9 14 15 17 18 23 25 27 29 31 32 36 41 45 49 53 56 50 43 39 38 32 29 27 31 27 22 29 60 69 56
10 10 6 5 5 5 6 7 8 8 8 8 9 10 14 20 24 24 26 27 29 31 36 40 43 44 48 54 53 50 49 48 42 39 33 30 34 30 25 36 69 76 46 12